WetterOnline ( http://www.wetteronline.de )

Wetter aktuell München

Aktuelles Wetter: München/Stadt (535m)

6-stündlich | Neueste Meldungen
Ortszeit Temperatur Wetter
Di, 21.08. 20:00 26.4° C wolkenlos
Di, 21.08. 14:00 28.0° C wolkenlos
Di, 21.08. 8:00 18.7° C wolkenlos
Di, 21.08. 2:00 19.0° C bedeckt
Mo, 20.08. 20:00 26.8° C wolkenlos
Mo, 20.08. 14:00 27.9° C fast wolkenlos
Mo, 20.08. 8:00 19.6° C wolkenlos
Mo, 20.08. 2:00 19.3° C wolkig
Ortszeit Temperatur Wetter
Di, 21.08. 23:00 21.8° C fast wolkenlos
Di, 21.08. 22:50 21.8° C fast wolkenlos
Di, 21.08. 22:40 21.6° C fast wolkenlos
Di, 21.08. 22:30 22.1° C fast wolkenlos
Di, 21.08. 22:20 22.1° C fast wolkenlos
Di, 21.08. 22:10 22.3° C fast wolkenlos
Di, 21.08. 22:00 22.7° C fast wolkenlos
Di, 21.08. 21:30 23.2° C leicht bewölkt
Di, 21.08. 21:00 24.1° C leicht bewölkt
Di, 21.08. 20:30 25.4° C wolkenlos
Di, 21.08. 20:00 26.4° C wolkenlos
Ortszeit Relative Feuchte Sichtweite
Di, 21.08. 20:00 42% 45 km
Di, 21.08. 14:00 42% 21 km
Di, 21.08. 8:00 74% 25 km
Di, 21.08. 2:00 71% 35 km
Mo, 20.08. 20:00 40% 60 km
Mo, 20.08. 14:00 36% 27 km
Mo, 20.08. 8:00 70% 24 km
Mo, 20.08. 2:00 71% 30 km
Ortszeit Relative Feuchte Sichtweite
Di, 21.08. 23:00 60% 35 km
Di, 21.08. 22:50 60% -
Di, 21.08. 22:40 60% -
Di, 21.08. 22:30 60% 35 km
Di, 21.08. 22:20 60% -
Di, 21.08. 22:10 59% -
Di, 21.08. 22:00 57% 35 km
Di, 21.08. 21:30 56% 40 km
Di, 21.08. 21:00 52% 45 km
Di, 21.08. 20:30 47% 50 km
Di, 21.08. 20:00 42% 45 km
Ortszeit Niederschlagsmenge Niederschlagsart
Di, 21.08. 20:00 0.0 l/m2 in 12 Std. -
Di, 21.08. 14:00 0.0 l/m2 in 6 Std. -
Di, 21.08. 8:00 0.0 l/m2 in 12 Std. -
Di, 21.08. 2:00 0.0 l/m2 in 6 Std. -
Mo, 20.08. 20:00 0.0 l/m2 in 12 Std. -
Mo, 20.08. 14:00 0.0 l/m2 in 6 Std. -
Mo, 20.08. 8:00 0.0 l/m2 in 12 Std. -
Mo, 20.08. 2:00 0.0 l/m2 in 6 Std. -
Ortszeit Niederschlagsmenge Niederschlagsart
Di, 21.08. 23:00 0.0 l/m2 in 1 Std. -
Di, 21.08. 22:50 keine Meldung -
Di, 21.08. 22:40 keine Meldung -
Di, 21.08. 22:30 0.0 l/m2 in 1 Std. -
Di, 21.08. 22:20 keine Meldung -
Di, 21.08. 22:10 keine Meldung -
Di, 21.08. 22:00 0.0 l/m2 in 1 Std. -
Di, 21.08. 21:30 0.0 l/m2 in 1 Std. -
Di, 21.08. 21:00 0.0 l/m2 in 1 Std. -
Di, 21.08. 20:30 0.0 l/m2 in 1 Std. -
Di, 21.08. 20:00 0.0 l/m2 in 1 Std. -
Ortszeit Stärke Spitze Richtung
km/h Bft. km/h Grad Sektor
Di, 21.08. 20:00 7 2 25 20° N
Di, 21.08. 14:00 9 2 24 100° O
Di, 21.08. 8:00 4 1 11 310° NW
Di, 21.08. 2:00 7 2 14 260° W
Mo, 20.08. 20:00 7 2 25 340° N
Mo, 20.08. 14:00 7 2 22 280° W
Mo, 20.08. 8:00 11 2 14 250° W
Mo, 20.08. 2:00 6 1 13 220° SW
Ortszeit Stärke Spitze Richtung
km/h Bft. km/h Grad Sektor
Di, 21.08. 23:00 7 2 14 350° N
Di, 21.08. 22:50 7 2 - 350° N
Di, 21.08. 22:40 9 2 - 360° N
Di, 21.08. 22:30 7 2 11 30° NO
Di, 21.08. 22:20 7 2 - 30° NO
Di, 21.08. 22:10 9 2 - 30° NO
Di, 21.08. 22:00 7 2 11 30° NO
Di, 21.08. 21:30 7 2 11 20° N
Di, 21.08. 21:00 7 2 14 20° N
Di, 21.08. 20:30 7 2 15 20° N
Di, 21.08. 20:00 7 2 18 20° N
Ortszeit Untergrenze Bedeckung Gattung
total tief tief mittel hoch
Di, 21.08. 20:00 - 0/8 0/8 - - -
Di, 21.08. 14:00 - 0/8 0/8 - - -
Di, 21.08. 8:00 - 0/8 0/8 - - -
Di, 21.08. 2:00 - 8/8 - - - -
Mo, 20.08. 20:00 - 0/8 0/8 - - -
Mo, 20.08. 14:00 10500 m 2/8 0/8 - - -
Mo, 20.08. 8:00 - 0/8 0/8 - - -
Mo, 20.08. 2:00 10500 m 8/8 0/8 - - -
Ortszeit Bedeckungsgrad in Achtel und Wolkenuntergrenze
Di, 21.08. 23:00 1(3000m)
Di, 21.08. 22:50 1(3000m)
Di, 21.08. 22:40 1(2700m)
Di, 21.08. 22:30 1(2700m)
Di, 21.08. 22:20 1(2700m)
Di, 21.08. 22:10 1(2700m)
Di, 21.08. 22:00 1(2700m)
Di, 21.08. 21:30 3(2100m) 4(2700m)
Di, 21.08. 21:00 1(2100m) 2(2700m)
Di, 21.08. 20:30 1(2700m)
Di, 21.08. 20:00 keine Wolken
Ortszeit Luftdruck NN (hPa) Tendenz (hPa in 3 Std.)
Di, 21.08. 20:00 1015 - 0,1
Di, 21.08. 14:00 1017 - 1,0
Di, 21.08. 8:00 1020 + 0,5
Di, 21.08. 2:00 1019 + 0,7
Mo, 20.08. 20:00 1016 - 0,3
Mo, 20.08. 14:00 1017 - 0,8
Mo, 20.08. 8:00 1019 + 0,5
Mo, 20.08. 2:00 1019 + 0,1
Ortszeit Luftdruck NN (hPa) Tendenz (hPa in 3 Std.)
Di, 21.08. 23:00 1017 + 1,0
Di, 21.08. 22:50 1017 keine Meldung
Di, 21.08. 22:40 1017 keine Meldung
Di, 21.08. 22:30 1017 + 1,2
Di, 21.08. 22:20 1017 keine Meldung
Di, 21.08. 22:10 1017 keine Meldung
Di, 21.08. 22:00 1017 + 1,3
Di, 21.08. 21:30 1017 + 1,2
Di, 21.08. 21:00 1016 + 0,6
Di, 21.08. 20:30 1016 + 0,2
Di, 21.08. 20:00 1015 - 0,1
Ortszeit Schneehöhe (cm)
Di, 21.08. 20:00 -
Di, 21.08. 14:00 -
Di, 21.08. 8:00 -
Di, 21.08. 2:00 -
Mo, 20.08. 20:00 -
Mo, 20.08. 14:00 -
Mo, 20.08. 8:00 -
Mo, 20.08. 2:00 -
Ortszeit Schneehöhe (cm)
Di, 21.08. 23:00 -
Di, 21.08. 22:50 -
Di, 21.08. 22:40 -
Di, 21.08. 22:30 -
Di, 21.08. 22:20 -
Di, 21.08. 22:10 -
Di, 21.08. 22:00 -
Di, 21.08. 21:30 -
Di, 21.08. 21:00 -
Di, 21.08. 20:30 -
Di, 21.08. 20:00 -
Link zu dieser Seite / Seite empfehlen

Das Wetter in ...